CAPE
1858 2074 2195 2386 2460 2440 2437 2300 2487 2563 2500 2407 2246 2180 2291 2288 2250 2182 2152 2250 2069 1898 1879 1947 2029 1968 1951 1727 1640 1594 1625 1610 1465 1314 1137 940 772 805 738 722 942 1177 1318 1322 1267 1116 1135 1155 986 708 625 657 586 432 489 475 500 580 588 579 591 642 602 475 248 188 134 114 129 64 141 167 548 696 436 207 89 44 5 3 2 0 0 1 3
1794 1888 1954 2246 2462 2494 2442 2411 2416 2577 2549 2457 2306 2179 1992 2338 2275 2260 2216 2206 2080 1990 1941 2053 2070 1990 1942 1776 1651 1539 1560 1528 1464 1325 1148 976 727 739 818 927 1017 1202 1321 1354 1303 1186 1186 1117 1092 785 590 584 470 397 455 472 394 444 642 817 842 608 359 238 220 158 44 33 39 55 52 247 181 187 379 179 60 17 2 2 2 0 1 3 2
1624 1565 1866 2309 2372 2369 2385 2384 2451 2485 2567 2455 2359 2316 2188 2352 2383 2269 2275 2242 2118 2056 2105 2119 2066 2048 1928 1842 1739 1625 1597 1607 1551 1437 1294 1064 906 808 866 964 1050 1217 1360 1388 1329 1181 1141 1143 1082 839 632 589 474 293 377 456 398 465 581 587 764 722 470 436 342 139 49 137 46 54 84 69 18 214 204 22 2 0 5 5 3 1 1 1 2
1639 1592 1796 2270 2244 2389 2339 2367 2394 2507 2486 2400 2386 2372 2242 2283 2393 2355 2336 2178 1942 1871 1907 2148 2088 2100 1966 1812 1799 1664 1712 1856 1743 1561 1360 1140 996 952 927 894 1140 1313 1438 1394 1304 1218 1103 1027 1054 932 774 650 532 326 239 439 384 373 524 604 718 716 639 573 390 120 39 0 0 3 10 9 19 48 54 11 0 7 11 7 5 2 2 2 2
1521 1508 1584 1828 2084 2216 2333 2372 2399 2390 2384 2287 2322 2375 2282 2208 2248 2282 2301 2086 1883 1927 1990 2137 2156 2116 2008 1841 1708 1722 1865 1892 1792 1622 1419 1274 1182 965 1093 927 940 1217 1388 1437 1278 1160 1048 1047 1038 1020 850 774 614 402 205 349 412 454 585 680 849 907 718 592 348 127 7 0 0 0 2 11 6 7 18 12 6 2 3 3 3 1 2 1 1
1458 1494 1588 1744 2024 2254 2310 2388 2411 2383 2354 2347 2348 2351 2279 2201 2157 2250 2217 2108 1988 1980 2081 2245 2240 2176 2097 1865 1678 1703 1773 1884 1726 1614 1606 1442 1350 1242 1023 928 1007 936 1015 1341 1177 1075 1006 1023 998 949 906 789 603 505 241 254 371 458 536 547 667 775 690 560 495 170 12 0 0 0 0 18 7 8 8 7 29 8 6 3 3 2 0 0 0
1441 1570 1670 1772 2014 2215 2296 2423 2436 2369 2270 2330 2322 2188 2192 2198 2240 2252 2198 2115 2035 2113 2128 2189 2180 2232 2116 1878 1700 1699 1725 1813 1664 1648 1669 1379 1402 1242 1045 998 943 733 795 1243 1150 1076 992 931 716 913 952 791 675 517 262 297 414 489 490 570 660 764 816 685 667 656 1009 497 0 0 0 0 5 15 54 48 8 3 3 2 2 2 2 0 0
1331 1519 1671 1670 1728 1984 2260 2408 2410 2283 2276 2241 2353 2309 2198 2195 2128 2078 2186 2130 2076 2144 2242 2306 2220 2208 2146 1945 1875 1776 1748 1772 1704 1738 1690 1449 1352 1120 944 1014 1073 904 729 868 1101 949 923 874 844 863 966 772 667 468 198 222 359 465 483 497 492 614 912 929 886 714 960 88 0 0 0 0 3 38 92 62 34 26 12 6 4 3 2 1 0
1282 1461 1586 1594 1730 1925 2332 2389 2423 2424 2381 2308 2120 2120 2120 2109 1936 1882 1974 2045 2135 2246 2253 2272 2279 2200 2188 2014 1969 1904 1861 1820 1682 1645 1579 1484 1437 1398 1338 1265 1170 1440 1531 1506 1385 1258 883 887 787 866 916 799 627 485 262 237 300 403 429 389 470 615 719 740 756 851 854 27 0 0 0 0 0 97 124 94 43 10 16 18 18 4 0 0 0
1268 1424 1509 1463 1538 1777 2096 2324 2429 2507 2481 2389 2201 1990 1934 1978 1916 1840 1926 2041 2111 2347 2302 2279 2264 2146 2172 2091 1890 1825 1668 1710 1752 1546 1634 1620 1616 1600 1631 1617 1679 1661 1643 1580 1445 1323 1178 902 843 866 914 840 731 610 517 431 370 388 525 532 430 429 431 628 603 593 442 5 0 0 32 30 0 30 128 80 40 2 8 46 5 2 2 2 1
1476 1489 1350 1296 1369 1518 1810 1986 2227 2484 2519 2435 2233 2070 1885 1813 1924 1874 1945 1931 2037 2265 2171 2145 1998 2158 2175 2017 1743 1693 1723 1766 1859 1700 1759 1720 1779 1746 1794 1826 1784 1792 1661 1217 1228 1254 1243 1063 854 916 1052 1000 842 731 612 544 532 421 427 470 397 318 88 560 426 0 103 56 37 16 164 230 0 33 116 92 61 18 6 9 4 1 1 2 1
1503 1372 1209 1193 1334 1304 1515 1604 1898 2116 2306 2368 2270 2088 1878 1740 1666 1701 1793 1865 1892 1997 2146 2126 2165 2190 2138 2038 2022 1970 1942 1735 1452 1832 1820 1724 1782 1838 1888 1985 2037 1848 1645 1512 1333 1173 1152 1088 1109 1043 1038 1014 923 827 745 638 533 451 246 412 441 198 198 153 128 0 14 12 12 8 21 13 12 70 75 72 59 27 2 0 1 3 2 2 2
1280 1299 1088 1116 1197 1225 1277 1441 1532 1627 1725 1981 2204 2019 1836 1806 1557 1726 1803 1372 1581 1960 2029 2224 2241 2197 2260 1957 2129 1993 2006 2158 2067 1933 1811 1902 1958 1996 2061 1967 1844 1668 1540 1418 1148 986 1032 1022 908 1000 1046 1015 950 894 821 701 624 405 343 282 329 79 342 260 75 20 0 0 0 0 0 0 36 109 117 67 31 3 2 3 3 2 2 2 2
1248 1151 1052 1123 1147 1054 1153 1331 1369 1605 1706 1794 1824 2028 2003 1941 1640 1558 1467 1455 1654 1554 1884 2271 2261 2276 2266 2342 2376 2355 2251 2159 2089 1903 1828 2030 2092 2103 1948 1753 1652 1416 1378 1308 1119 1088 1093 1010 989 1032 989 985 887 777 764 642 584 460 293 281 321 276 104 49 0 4 0 0 8 0 0 39 111 234 159 34 8 6 5 3 4 4 2 2 1
1118 1080 1062 1171 1158 1012 1015 1151 1400 1463 1563 1646 1766 1876 1876 1946 1899 1608 1611 2040 2174 2218 2255 2212 2174 2185 2191 2190 2176 2141 2085 2085 2116 1994 1650 2148 2137 2011 1819 1677 1691 1568 1405 1379 1283 1078 989 897 814 926 994 976 783 679 584 568 540 430 462 321 40 264 318 63 2 0 5 18 33 18 8 82 307 209 147 88 9 6 5 3 2 2 4 3 0
1174 1086 1072 1126 1159 1104 891 974 1169 1411 1432 1598 1729 1864 1948 1805 1825 1794 1862 2138 2040 2207 2199 2224 2209 2105 2082 2053 2125 2175 2190 2118 2076 2101 2112 2155 2093 1913 1749 1717 1720 1731 1608 1405 1204 1032 943 931 952 946 975 915 812 648 626 596 588 546 215 55 330 256 354 370 22 4 10 1 1 2 43 213 443 229 108 40 4 2 4 3 3 4 3 2 2
1153 1074 1070 1021 1027 950 899 804 1024 1336 1411 1554 1797 1939 2015 1986 1903 1917 2168 2157 2207 2185 2219 2247 2145 2050 2002 2114 2164 2152 2155 2079 1980 1958 2041 2084 2065 1875 1793 1759 1730 1651 1535 1370 1211 1014 910 955 1001 991 958 922 807 778 684 600 472 138 63 89 218 317 444 674 0 4 9 31 7 10 91 153 278 164 97 4 3 3 3 4 2 3 2 2 1
1012 1067 1059 1048 1023 1055 982 867 867 1007 1340 1421 1682 1954 2018 2017 1993 1909 1909 2095 2184 2159 2152 2091 2120 2016 1966 2078 2231 2225 2126 2094 2008 1999 2031 1899 1868 1828 1804 1718 1641 1457 1336 1284 1229 1099 969 887 876 908 1001 966 898 744 684 414 245 143 24 156 259 543 519 566 0 27 39 69 7 53 40 335 330 126 41 19 2 3 3 3 2 0 0 2 0
1081 1068 1095 1086 1147 1188 1080 1086 1154 863 1088 1280 1540 1802 1970 2009 2016 1932 1880 1955 2125 2151 2060 2137 2237 2105 2195 2280 2264 2268 2237 2140 2092 1994 1756 1643 1810 1858 1697 1713 1467 1314 1256 1212 1254 1158 960 871 884 1015 1042 915 757 695 534 401 217 149 171 396 358 271 487 32 0 34 27 0 7 21 67 341 191 78 54 26 2 1 1 0 2 1 0 0 0
1209 1269 1229 1257 1257 1205 1295 1454 1442 1437 1363 1251 1446 1651 1993 2090 2065 1943 1926 1752 1763 1530 2033 2267 2289 2225 2164 2168 2254 2250 2170 2058 1992 1905 1785 1649 1556 1513 1739 1667 1392 1277 1255 1263 1256 1157 938 913 1016 988 994 859 822 580 476 437 340 248 388 356 129 682 4 0 3 0 0 10 28 46 339 328 219 72 91 12 1 0 0 0 0 0 1 0 0
539 943 1352 1484 1418 1452 1467 1571 1641 1690 1625 1617 1520 1591 2000 2174 2138 2147 1986 2022 1889 1594 1320 2190 2253 2267 2197 2026 2008 1886 1843 1892 1787 1676 1905 1457 1353 1597 1790 1605 1444 1343 1351 1312 1192 1074 937 968 1018 1043 919 809 674 639 566 523 485 320 331 386 635 37 0 0 0 8 1 51 74 127 501 369 162 102 106 13 0 0 1 0 0 0 1 1 0
238 419 606 1091 1381 1466 1516 1630 1707 1654 1678 1610 1570 1646 1869 1976 2017 2010 2026 2133 2206 2239 2082 2061 2290 2100 2116 1894 1829 1966 1811 1710 1575 2002 1475 1677 1691 1590 1753 1417 1510 1386 1287 1230 1108 1024 996 1085 1028 1024 916 827 733 539 550 642 532 471 538 582 158 2 0 3 0 0 0 0 39 310 519 407 232 207 101 1 0 0 2 1 1 0 0 1 1
0 0 0 0 720 1137 1278 1346 1586 1625 1585 1502 1493 1790 1855 1965 2025 2019 2131 2326 2248 2416 2036 2016 2068 2007 1934 1894 1797 1804 1672 1666 1512 1642 1442 1772 1684 1731 1789 1480 1614 1386 1251 1146 1032 1049 1040 1079 1016 1020 901 903 662 329 358 174 223 484 577 356 60 15 2 10 0 0 0 0 1 341 373 437 305 223 81 9 0 2 3 1 0 0 0 0 1
0 0 0 0 0 820 1196 1409 1468 1512 1573 1550 1586 1696 1642 1613 1458 1533 1825 1986 1966 2034 1958 1680 1732 1830 1885 1916 1385 1271 1037 1448 1665 1318 1044 921 1563 1693 1749 1757 1687 1472 1245 1116 942 1022 991 888 897 880 775 819 585 348 232 98 38 49 92 90 30 10 6 8 0 0 0 112 86 326 290 381 356 177 94 18 0 5 4 1 0 0 0 0 0
0 0 0 0 0 0 966 1241 1253 1376 1420 1505 1557 1579 1500 1455 1465 1375 1448 1393 1231 1207 1042 766 658 819 1253 1295 1112 942 765 792 873 688 813 728 1151 1390 1536 1486 1393 1302 1171 915 746 734 545 264 326 391 215 290 516 62 120 63 8 133 5 41 37 11 1 17 0 0 0 29 138 316 340 350 363 128 48 54 0 2 5 2 0 0 0 0 0
0 0 0 0 0 0 0 460 1432 1293 1260 1218 1326 1405 1304 1203 1204 1198 1314 1231 1183 1107 1068 956 743 689 778 1015 714 648 584 578 676 624 541 288 764 491 1291 1369 1183 1117 862 739 596 501 225 21 26 13 1 0 0 0 0 26 6 85 0 0 2 1 1 1 0 0 0 4 218 412 279 259 132 15 2 0 2 2 5 0 1 0 0 0 0
0 0 0 0 0 0 0 0 0 1251 1290 1337 1190 1186 1268 998 1120 1056 1086 1146 1143 1017 1030 1068 908 705 837 944 595 556 524 523 487 481 580 536 539 659 570 1029 1069 982 786 729 553 442 263 34 0 0 0 0 0 0 0 25 66 37 0 0 0 0 20 0 0 0 0 4 144 315 274 282 149 22 1 0 0 1 3 5 2 0 0 0 0
0 0 0 0 0 0 0 0 0 1135 1371 1332 1281 1216 1091 1047 985 1004 904 1224 955 879 908 893 817 909 845 1040 831 641 562 475 511 430 210 202 437 511 431 630 1093 935 682 643 505 439 282 130 0 0 0 0 0 1 0 52 124 93 0 0 0 0 9 0 0 0 0 0 78 295 232 276 237 111 18 0 0 2 2 9 2 0 0 0 0
0 0 0 0 0 0 0 0 0 0 1361 895 686 709 795 793 809 868 828 1030 902 857 864 844 748 722 849 869 867 785 601 473 394 301 405 368 348 420 487 430 590 668 576 358 293 285 94 54 0 0 0 0 0 0 0 146 172 0 3 4 0 0 9 0 0 0 0 0 13 261 285 215 188 134 67 7 0 0 2 7 2 0 0 0 0
0 0 0 0 0 0 0 0 0 0 148 764 642 554 434 282 221 371 811 822 925 871 873 844 734 695 815 779 890 732 666 568 475 452 526 540 557 561 537 621 692 447 311 130 207 112 0 0 0 0 0 0 0 0 51 155 162 0 0 26 31 1 8 0 0 0 0 0 1 145 268 142 141 134 90 81 2 1 1 16 10 2 0 1 1
0 0 0 0 0 0 0 0 0 0 0 0 0 12 62 16 105 249 382 684 658 743 837 870 808 719 793 801 935 937 737 660 496 487 532 542 621 672 603 381 637 631 441 366 266 307 96 80 66 25 19 22 202 120 0 0 0 0 0 0 107 57 34 14 0 0 0 0 0 55 178 196 123 91 112 74 79 9 13 21 4 3 0 0 0
0 0 0 0 0 0 0 0 0 0 0 0 0 0 0 16 90 8 0 410 546 589 654 722 823 687 666 663 784 915 893 748 641 607 421 474 534 830 716 589 449 676 426 473 590 466 161 145 121 102 78 213 227 0 0 0 0 0 0 0 36 1 2 38 0 0 0 0 0 8 30 52 149 65 51 53 97 95 26 35 42 1 1 0 0
0 0 0 0 0 0 0 0 0 0 0 0 0 0 0 0 0 0 31 80 314 444 475 529 659 666 644 613 586 640 853 879 722 664 636 685 684 596 703 651 616 803 481 340 422 442 228 168 114 156 176 206 215 15 0 0 0 0 0 0 13 9 0 53 1 5 0 0 0 0 0 4 24 75 52 105 60 104 159 127 57 20 0 0 0
0 0 0 0 0 0 0 0 0 0 0 0 0 0 0 0 0 0 0 0 0 171 198 222 458 497 499 619 728 791 565 666 834 799 741 822 793 680 731 726 739 575 528 486 178 179 396 359 188 123 308 255 148 51 0 0 0 0 0 0 0 0 0 39 37 25 13 1 0 0 0 0 0 0 24 170 102 52 67 160 245 65 0 0 0
0 0 0 0 0 0 0 0 0 0 0 0 0 0 0 0 0 0 0 0 0 0 0 54 345 350 378 388 333 337 516 551 461 648 785 756 812 764 688 747 734 700 646 453 369 340 506 309 307 391 90 151 33 0 0 0 0 0 0 0 0 1 85 221 227 50 123 29 0 0 0 0 0 0 0 3 98 66 25 102 244 214 18 0 0
0 0 0 0 0 0 0 0 0 0 0 0 0 0 0 0 0 10 0 0 0 0 0 0 0 69 304 296 301 260 358 425 426 300 520 659 667 773 859 829 849 723 494 490 901 678 666 739 565 424 247 176 47 16 0 0 0 0 0 0 0 171 188 245 217 184 164 160 127 23 120 11 0 0 4 0 0 0 36 40 131 190 84 7 0
0 0 0 0 0 0 0 0 0 0 0 0 0 0 0 0 0 0 0 0 0 0 0 0 0 0 0 0 125 28 54 532 590 457 504 610 662 715 898 913 997 992 723 631 622 500 427 793 909 756 358 290 70 86 0 0 0 0 0 0 0 0 192 232 167 71 123 46 91 290 262 263 270 67 0 0 0 0 30 48 68 81 127 99 0
0 0 0 0 0 0 0 0 0 0 0 0 0 0 0 0 0 0 0 0 0 0 0 0 0 0 0 0 0 22 76 10 411 418 264 382 326 346 461 826 966 908 760 669 686 530 561 489 831 1162 950 632 185 61 223 113 60 0 0 0 0 0 0 34 54 88 151 211 19 195 271 311 66 27 0 0 0 0 0 21 84 34 61 11 7
0 0 0 0 0 0 0 0 0 0 0 0 0 0 0 0 0 0 0 0 0 0 0 0 0 0 0 0 0 0 0 0 11 195 199 256 212 279 257 775 788 897 870 734 1024 903 655 530 574 583 1049 896 934 776 592 441 350 221 309 43 0 0 0 0 0 16 20 99 208 121 0 256 181 76 0 0 0 0 0 0 0 0 11 9 13
0 0 0 0 0 0 0 0 0 0 0 0 0 0 0 0 0 0 0 0 0 0 0 0 0 0 0 0 0 0 0 0 0 0 0 0 18 142 158 416 768 713 806 824 858 911 809 772 581 483 426 649 705 869 565 386 276 95 149 191 0 0 0 0 0 2 1 0 49 13 0 41 8 41 16 0 0 0 0 0 0 0 0 10 34
0 0 0 0 0 0 0 0 0 0 0 0 0 0 0 0 0 0 0 0 0 0 0 0 0 0 0 0 0 0 0 0 0 0 0 132 0 21 8 0 103 465 651 738 836 879 815 776 749 954 494 508 515 843 760 336 313 112 280 227 0 0 0 0 0 0 0 0 0 0 0 0 0 0 0 0 0 0 0 0 0 0 0 0 2
0 0 0 0 0 0 0 0 0 0 0 0 0 0 0 0 0 0 0 0 0 0 0 0 0 0 0 0 0 0 0 0 0 2 0 0 0 0 0 0 0 0 0 85 460 576 607 641 765 750 820 678 584 750 1069 359 322 268 102 211 0 0 0 0 0 0 0 0 0 0 0 0 0 0 0 0 0 0 0 0 0 0 0 0 0
0 0 0 0 0 0 0 0 0 0 0 0 0 0 0 0 0 0 0 0 0 0 0 0 0 0 0 0 0 0 0 0 0 0 0 0 0 0 0 2 0 0 0 0 0 13 395 512 585 679 818 750 825 880 764 447 172 186 197 159 44 41 14 0 0 0 0 0 0 0 0 0 0 0 0 0 0 0 0 0 0 0 0 0 0
0 0 0 0 0 0 0 0 0 0 0 0 0 0 0 0 0 0 0 0 0 0 0 0 0 0 0 0 0 0 0 0 0 0 0 0 0 0 0 0 1 12 8 0 0 0 0 104 372 421 466 679 733 721 752 645 415 156 55 77 172 60 23 18 0 0 0 0 0 0 0 0 0 0 0 0 0 0 0 0 0 0 0 0 0
0 0 0 0 0 0 0 0 0 0 0 0 0 0 0 0 0 0 0 0 0 0 0 0 0 0 0 0 0 0 0 0 0 0 0 0 0 0 0 0 0 0 0 0 1 20 24 0 11 131 246 288 382 452 594 718 614 458 181 110 83 87 22 0 0 3 0 0 0 0 0 0 0 0 0 0 0 0 0 0 0 0 0 0 0
0 0 0 0 0 0 1 0 0 0 0 0 0 0 0 0 0 0 0 0 0 0 0 0 0 0 0 0 0 0 0 0 0 0 0 0 0 0 0 0 0 0 0 0 2 2 4 52 197 84 22 17 4 213 299 494 618 515 424 112 101 56 89 106 0 0 0 0 0 0 0 0 0 0 0 0 0 0 0 0 0 0 0 0 0
0 0 0 0 0 0 1 0 0 0 0 0 0 0 0 0 0 0 0 0 0 0 0 0 0 0 0 0 0 0 0 0 0 0 0 0 0 0 0 0 0 0 0 0 0 0 0 6 15 66 208 199 164 65 52 88 217 355 414 446 268 210 112 40 89 10 13 0 0 0 5 0 0 0 0 0 0 0 0 0 0 0 0 0 0
0 0 0 0 0 0 2 0 0 0 0 0 0 0 0 0 0 0 0 0 0 0 0 0 0 0 0 0 0 0 0 0 0 0 0 0 0 0 0 0 0 0 0 0 0 0 0 0 0 23 41 140 230 191 107 79 244 428 432 411 394 293 226 174 71 83 15 3 1 0 0 0 0 0 0 0 0 0 0 0 0 0 0 0 0
0 0 6 3 0 0 1 0 0 0 0 0 0 0 0 0 0 0 0 0 0 0 0 0 0 0 0 0 0 0 0 0 0 0 0 0 0 0 0 0 0 0 0 0 0 0 0 0 0 0 4 136 336 407 320 211 223 263 337 344 464 162 398 338 245 142 68 6 0 0 2 6 0 0 0 0 0 0 0 0 0 0 0 0 0
2 4 9 2 0 0 0 0 0 0 0 0 0 0 0 0 0 0 0 0 0 0 0 0 0 0 0 0 0 0 0 0 0 0 0 0 0 0 0 0 0 0 0 0 0 0 0 0 0 0 0 0 12 88 148 273 300 277 258 258 277 352 390 344 316 358 205 2 0 4 3 9 0 2 0 0 0 0 0 0 0 0 0 0 0
8 14 5 6 0 0 2 0 0 0 0 0 0 0 0 0 0 0 0 0 0 0 0 0 0 0 0 0 0 0 0 0 0 0 0 0 0 0 0 0 0 0 0 0 0 0 0 0 0 0 0 0 0 0 29 97 145 209 293 279 204 169 201 280 262 312 245 10 0 0 0 0 0 0 0 0 0 0 0 1 0 0 0 0 0
Wind_Speed
29 30 28 32 30 30 29 28 26 26 25 25 26 27 28 29 30 31 31 31 31 32 32 32 32 32 30 29 29 28 28 27 25 24 23 23 24 23 22 21 20 19 18 17 18 19 19 20 22 23 22 22 22 23 23 24 25 26 26 26 26 26 27 25 24 24 21 21 21 nan 17 16 17 16 16 13 nan nan nan nan nan nan nan nan nan
31 29 28 28 31 30 29 28 26 24 25 25 26 26 27 28 29 30 30 31 30 30 31 31 31 31 30 29 29 28 27 27 25 22 22 21 22 22 21 20 20 18 17 17 17 19 19 21 22 23 22 21 22 22 23 25 26 26 26 26 25 25 25 25 24 24 nan nan nan nan nan 18 17 16 15 14 nan nan nan nan nan nan nan nan nan
31 30 27 27 31 30 28 27 25 24 24 25 25 26 27 27 28 29 29 29 29 29 29 30 31 31 30 29 29 28 27 26 24 23 21 20 21 22 21 20 20 18 18 18 17 18 19 20 22 22 21 21 21 21 22 25 26 26 25 25 22 22 23 22 21 21 nan 23 nan nan nan nan nan 16 15 nan nan nan nan nan nan nan nan nan nan
31 27 25 28 32 29 27 26 24 24 24 25 26 27 27 26 27 28 28 28 27 27 28 29 30 31 31 30 29 29 28 27 25 24 21 21 22 23 21 20 20 19 18 18 17 18 19 19 20 20 21 21 20 21 21 23 24 23 24 23 22 22 22 21 20 19 nan nan nan nan nan nan nan nan nan nan nan nan nan nan nan nan nan nan nan
31 28 26 25 25 28 28 28 26 25 25 25 26 27 27 26 26 27 28 28 27 27 27 28 28 29 31 30 29 29 29 29 26 24 22 22 23 22 21 20 20 19 18 18 17 17 19 19 20 20 22 21 20 20 20 21 22 23 24 23 22 21 21 20 20 19 nan nan nan nan nan nan nan nan nan nan nan nan nan nan nan nan nan nan nan
29 27 26 25 25 26 28 28 26 25 25 25 26 26 27 27 27 28 29 28 29 29 28 29 29 29 30 31 30 29 29 29 26 25 23 24 23 22 22 20 19 18 18 19 18 17 18 18 19 19 21 20 19 19 19 20 21 23 25 25 24 22 21 19 18 18 nan nan nan nan nan nan nan nan nan nan nan nan nan nan nan nan nan nan nan
29 27 27 26 25 26 27 27 26 24 24 24 24 25 26 27 28 28 29 28 29 30 31 31 31 31 31 31 31 29 28 29 27 26 24 24 22 22 21 20 20 18 17 18 19 18 18 18 18 19 20 20 19 18 18 20 22 23 24 25 25 24 22 19 16 14 17 22 nan nan nan nan nan nan nan nan nan nan nan nan nan nan nan nan nan
29 28 28 26 24 27 27 26 25 24 24 23 25 26 26 27 28 28 29 29 29 30 31 32 33 32 32 32 31 29 28 29 28 27 26 25 24 22 20 18 19 18 17 18 19 18 17 17 18 18 20 19 18 17 17 20 23 24 25 26 26 25 24 20 18 14 13 nan nan nan nan nan nan nan nan nan nan nan nan nan nan nan nan nan nan
28 28 28 25 23 28 25 24 24 24 24 25 26 27 27 28 29 29 28 30 31 33 32 32 33 33 33 32 31 30 28 29 30 29 27 26 24 22 19 17 18 18 17 17 18 17 17 18 18 19 19 18 17 17 16 19 23 25 25 29 31 35 35 30 25 18 17 nan nan nan nan nan nan nan 13 nan nan nan nan nan nan nan nan nan nan
29 28 28 25 24 27 25 25 25 24 24 25 27 28 28 29 29 29 28 30 32 34 33 31 32 32 32 32 30 30 28 28 30 30 28 27 24 23 21 19 18 19 18 18 19 18 17 18 19 18 19 18 16 15 16 18 22 25 31 34 36 37 34 31 26 19 17 nan nan nan nan nan nan nan 14 nan nan nan nan nan nan nan nan nan nan
31 28 27 26 24 25 26 27 27 26 25 27 28 27 28 28 27 26 26 28 31 32 32 31 31 30 30 30 30 30 29 27 30 30 30 28 26 24 22 21 21 20 19 19 20 20 20 21 21 19 19 17 15 14 14 17 22 28 32 34 37 36 nan 31 28 nan 18 nan nan nan 16 19 nan nan 14 nan nan nan nan nan nan nan nan nan nan
32 30 27 25 27 26 28 29 30 30 29 30 29 27 25 24 23 24 25 27 28 30 31 30 30 29 29 29 30 30 28 26 29 31 30 29 26 25 24 23 23 23 21 22 22 21 21 20 19 20 19 16 13 12 13 16 21 27 32 35 38 36 37 36 31 nan nan nan nan nan nan nan nan nan nan nan nan nan nan nan nan nan nan nan nan
32 30 28 26 25 29 30 33 35 35 34 32 28 25 22 20 22 24 26 27 25 28 32 31 29 28 27 29 30 29 26 24 28 31 29 29 26 25 25 23 24 23 22 22 21 21 20 19 19 20 18 15 13 11 12 15 19 24 30 33 35 nan 35 36 nan nan nan nan nan nan nan nan nan 18 16 nan nan nan nan nan nan nan nan nan nan
31 30 29 28 25 32 33 34 34 34 32 29 25 21 21 22 24 26 27 28 23 27 28 29 27 26 27 28 29 29 25 23 27 30 28 29 27 25 25 24 23 23 22 21 22 21 21 19 19 20 17 15 13 11 13 15 18 23 29 33 31 32 33 nan nan nan nan nan nan nan nan nan 15 19 18 nan nan nan nan nan nan nan nan nan nan
32 31 31 29 28 28 35 33 33 33 31 26 23 21 22 24 26 29 27 24 24 29 29 25 23 24 26 27 28 28 26 24 27 30 28 30 28 25 24 24 22 22 22 21 22 22 21 19 19 19 17 15 13 12 14 16 18 23 27 29 nan 32 33 nan nan nan nan nan nan nan nan nan 16 19 20 nan nan nan nan nan nan nan nan nan nan
31 32 32 30 29 28 27 31 31 31 29 27 24 24 24 25 27 27 26 26 27 29 26 21 21 22 24 25 27 29 27 25 28 30 29 30 29 24 23 23 23 21 22 21 22 22 21 21 20 19 17 16 14 14 15 17 19 22 24 nan 30 33 33 33 nan nan nan nan nan nan nan 15 18 20 21 nan nan nan nan nan nan nan nan nan nan
33 32 32 31 29 28 27 25 26 30 28 27 26 26 25 26 27 28 27 27 28 27 23 18 19 21 23 24 26 28 28 25 27 30 30 30 28 23 21 23 23 22 21 21 21 21 22 21 20 19 18 16 16 15 16 17 18 21 nan nan 32 33 34 36 nan nan nan nan nan nan nan 16 18 19 nan nan nan nan nan nan nan nan nan nan nan
33 33 32 30 29 29 28 26 26 24 24 26 28 27 26 26 28 27 26 25 25 24 21 18 19 22 24 24 24 26 27 25 25 29 30 29 27 23 21 23 23 21 20 20 20 21 21 20 19 19 18 17 16 16 16 16 18 19 nan 25 30 33 35 37 nan nan nan nan nan nan nan 16 18 18 nan nan nan nan nan nan nan nan nan nan nan
33 33 31 29 30 30 29 27 26 26 26 24 23 25 27 26 26 26 25 22 20 22 22 21 23 24 25 25 24 25 26 26 26 29 30 29 27 24 22 23 24 21 20 20 21 21 21 21 20 19 19 18 17 16 16 16 16 17 19 23 27 30 35 nan nan nan nan nan nan nan nan 19 19 nan nan nan nan nan nan nan nan nan nan nan nan
33 32 31 30 30 30 29 29 28 28 27 25 25 23 24 25 24 24 24 22 21 21 20 24 25 26 26 25 23 22 25 25 27 28 29 29 28 24 23 24 24 22 20 19 20 21 21 21 21 20 19 18 18 16 15 15 16 16 19 22 25 28 nan nan nan nan nan nan nan nan 21 21 22 nan nan nan nan nan nan nan nan nan nan nan nan
31 30 31 30 30 31 31 30 30 29 29 27 24 22 22 24 20 21 23 22 22 23 18 24 24 25 24 23 23 22 23 25 27 27 29 27 28 25 23 24 24 22 20 20 20 21 22 22 22 20 18 18 17 16 15 15 15 16 19 22 24 nan nan nan nan nan nan nan nan 23 22 22 23 23 23 nan nan nan nan nan nan nan nan nan nan
31 30 29 29 30 31 32 31 30 29 28 25 22 21 20 20 16 16 19 21 21 21 21 20 22 21 23 22 21 21 23 24 25 27 27 27 28 27 25 24 24 22 21 20 20 20 21 22 22 20 18 17 18 20 18 15 14 15 18 21 23 nan nan nan nan nan nan nan nan 23 23 22 23 23 22 nan nan nan nan nan nan nan nan nan nan
nan nan nan nan 29 30 30 30 30 27 27 24 21 21 20 18 16 16 18 20 20 20 20 21 21 20 20 20 20 22 23 23 25 27 26 26 28 29 27 25 24 22 21 21 20 19 20 22 22 20 19 21 22 22 20 19 16 13 16 19 nan nan nan nan nan nan nan nan nan 25 24 24 24 24 nan nan nan nan nan nan nan nan nan nan nan
nan nan nan nan nan 27 27 28 26 26 25 23 22 20 20 18 17 16 18 20 21 20 18 20 20 20 20 21 23 25 26 26 29 31 31 29 27 30 30 27 24 23 22 22 22 20 19 20 22 23 25 24 24 24 21 nan nan nan nan nan nan nan nan nan nan nan nan 26 nan 26 25 24 24 24 nan nan nan nan nan nan nan nan nan nan nan
nan nan nan nan nan nan 24 25 27 25 25 23 23 21 20 20 18 18 20 21 22 22 21 22 23 23 24 25 25 24 24 25 26 27 28 29 30 29 32 31 27 25 24 23 21 20 20 22 25 26 26 26 25 nan 21 nan nan 17 nan nan nan nan nan nan nan nan nan nan 25 26 25 25 24 23 nan nan nan nan nan nan nan nan nan nan nan
nan nan nan nan nan nan nan 24 25 26 24 23 23 22 23 21 19 19 20 20 21 22 22 21 20 24 25 25 24 24 23 24 24 26 29 30 29 27 31 32 29 26 24 21 19 19 21 nan nan nan nan nan nan nan nan nan nan nan nan nan nan nan nan nan nan nan nan nan 24 26 26 25 24 nan nan nan nan nan nan nan nan nan nan nan nan
nan nan nan nan nan nan nan nan nan 24 25 24 24 22 22 22 22 21 22 21 21 22 21 19 20 23 22 23 23 23 22 23 24 26 27 28 29 25 27 30 29 26 23 22 19 18 19 nan nan nan nan nan nan nan nan nan nan nan nan nan nan nan nan nan nan nan nan nan 22 24 24 24 24 nan nan nan nan nan nan nan nan nan nan nan nan
nan nan nan nan nan nan nan nan nan 24 24 25 24 23 23 24 23 22 22 23 23 22 21 19 21 22 21 20 19 21 22 22 23 25 26 29 29 29 31 28 27 26 23 23 20 19 20 21 nan nan nan nan nan nan nan nan 19 nan nan nan nan nan nan nan nan nan nan nan nan 20 22 23 22 21 nan nan nan nan nan nan nan nan nan nan nan
nan nan nan nan nan nan nan nan nan nan 24 25 25 25 25 25 25 24 25 25 25 23 22 21 23 21 20 19 18 20 20 20 22 24 26 26 27 25 27 27 29 30 27 24 22 20 nan nan nan nan nan nan nan nan nan 22 22 nan nan nan nan nan nan nan nan nan nan nan nan 17 20 21 21 21 nan nan nan nan nan nan nan nan nan nan nan
nan nan nan nan nan nan nan nan nan nan 24 27 28 27 27 26 26 26 25 27 27 25 23 23 23 21 21 22 20 19 18 19 23 25 26 25 27 26 27 26 29 33 31 29 27 23 nan nan nan nan nan nan nan nan nan 25 23 nan nan nan nan nan nan nan nan nan nan nan nan 17 18 20 20 21 nan nan nan nan nan nan nan nan nan nan nan
nan nan nan nan nan nan nan nan nan nan nan nan nan nan nan nan 27 27 27 27 28 29 25 24 25 23 22 22 21 19 19 20 21 23 24 26 27 25 24 23 26 32 32 31 33 29 nan nan nan nan nan nan 26 27 nan nan nan nan nan nan 22 nan nan nan nan nan nan nan nan nan 17 19 19 nan 19 nan nan nan nan nan nan nan nan nan nan
nan nan nan nan nan nan nan nan nan nan nan nan nan nan nan nan nan nan nan 28 29 29 27 25 26 24 23 23 22 20 19 19 18 17 21 27 26 25 23 21 23 31 34 32 32 32 30 27 23 23 nan 25 26 nan nan nan nan nan nan nan nan nan nan nan nan nan nan nan nan nan nan nan 18 nan nan nan nan nan nan nan nan nan nan nan nan
nan nan nan nan nan nan nan nan nan nan nan nan nan nan nan nan nan nan nan nan 30 29 28 26 26 25 24 22 20 20 18 17 16 14 19 23 24 25 27 24 22 26 34 30 32 34 35 31 26 24 24 25 28 nan nan nan nan nan nan nan nan nan nan nan nan nan nan nan nan nan nan nan nan nan nan 19 nan 21 19 18 nan nan nan nan nan
nan nan nan nan nan nan nan nan nan nan nan nan nan nan nan nan nan nan nan nan nan 29 28 26 26 27 26 23 19 18 18 17 15 14 17 23 26 26 26 26 21 19 26 31 33 35 35 32 29 28 25 24 28 nan nan nan nan nan nan nan nan nan nan nan nan nan nan nan nan nan nan nan nan nan nan 18 18 nan nan 19 18 nan nan nan nan
nan nan nan nan nan nan nan nan nan nan nan nan nan nan nan nan nan nan nan nan nan nan nan nan 28 27 27 24 21 16 15 18 16 16 18 22 27 24 18 20 18 17 18 23 25 27 32 33 32 31 nan 25 nan nan nan nan nan nan nan nan nan nan nan 26 27 nan 26 nan nan nan nan nan nan nan nan nan nan nan nan 21 21 22 nan nan nan
nan nan nan nan nan nan nan nan nan nan nan nan nan nan nan nan nan nan nan nan nan nan nan nan nan nan 28 26 23 18 16 16 18 19 19 20 23 20 18 18 18 20 19 18 20 23 28 35 35 30 30 28 nan nan nan nan nan nan nan nan nan 31 30 29 28 27 25 27 25 nan 23 nan nan nan nan nan nan nan nan nan 23 22 nan nan nan
nan nan nan nan nan nan nan nan nan nan nan nan nan nan nan nan nan nan nan nan nan nan nan nan nan nan nan nan 27 nan nan 19 19 21 21 21 25 22 14 16 20 22 24 21 23 24 22 27 33 33 31 29 nan nan nan nan nan nan nan nan nan nan 32 29 29 nan 27 nan nan 25 26 24 24 nan nan nan nan nan nan nan nan nan 22 nan nan
nan nan nan nan nan nan nan nan nan nan nan nan nan nan nan nan nan nan nan nan nan nan nan nan nan nan nan nan nan nan nan nan 20 22 23 25 27 23 15 18 19 20 24 23 23 25 24 20 22 30 34 33 31 nan 30 30 nan nan nan nan nan nan nan nan nan nan 28 28 nan 28 26 27 nan nan nan nan nan nan nan nan nan nan nan nan nan
nan nan nan nan nan nan nan nan nan nan nan nan nan nan nan nan nan nan nan nan nan nan nan nan nan nan nan nan nan nan nan nan nan 22 25 24 27 26 21 18 20 21 22 19 18 21 25 23 20 25 31 34 34 33 31 32 33 32 32 nan nan nan nan nan nan nan nan nan 29 27 nan 28 28 nan nan nan nan nan nan nan nan nan nan nan nan
nan nan nan nan nan nan nan nan nan nan nan nan nan nan nan nan nan nan nan nan nan nan nan nan nan nan nan nan nan nan nan nan nan nan nan nan nan 28 29 22 20 24 26 23 19 20 24 26 26 23 24 30 31 33 33 34 34 nan 31 29 nan nan nan nan nan nan nan nan nan nan nan nan nan nan nan nan nan nan nan nan nan nan nan nan nan
nan nan nan nan nan nan nan nan nan nan nan nan nan nan nan nan nan nan nan nan nan nan nan nan nan nan nan nan nan nan nan nan nan nan nan 26 nan nan nan nan 25 24 27 26 27 26 25 27 28 28 23 25 29 32 35 37 38 36 34 32 nan nan nan nan nan nan nan nan nan nan nan nan nan nan nan nan nan nan nan nan nan nan nan nan nan
nan nan nan nan nan nan nan nan nan nan nan nan nan nan nan nan nan nan nan nan nan nan nan nan nan nan nan nan nan nan nan nan nan nan nan nan nan nan nan nan nan nan nan nan 27 27 27 27 26 26 27 28 30 33 35 38 38 37 37 36 nan nan nan nan nan nan nan nan nan nan nan nan nan nan nan nan nan nan nan nan nan nan nan nan nan
nan nan nan nan nan nan nan nan nan nan nan nan nan nan nan nan nan nan nan nan nan nan nan nan nan nan nan nan nan nan nan nan nan nan nan nan nan nan nan nan nan nan nan nan nan nan 28 25 25 27 28 29 28 31 33 36 38 41 41 39 nan nan nan nan nan nan nan nan nan nan nan nan nan nan nan nan nan nan nan nan nan nan nan nan nan
nan nan nan nan nan nan nan nan nan nan nan nan nan nan nan nan nan nan nan nan nan nan nan nan nan nan nan nan nan nan nan nan nan nan nan nan nan nan nan nan nan nan nan nan nan nan nan 30 29 30 32 27 28 30 32 34 39 43 nan nan 37 nan nan nan nan nan nan nan nan nan nan nan nan nan nan nan nan nan nan nan nan nan nan nan nan
nan nan nan nan nan nan nan nan nan nan nan nan nan nan nan nan nan nan nan nan nan nan nan nan nan nan nan nan nan nan nan nan nan nan nan nan nan nan nan nan nan nan nan nan nan nan nan nan nan 32 32 30 29 31 32 33 33 37 42 42 nan nan nan nan nan nan nan nan nan nan nan nan nan nan nan nan nan nan nan nan nan nan nan nan nan
nan nan nan nan nan nan nan nan nan nan nan nan nan nan nan nan nan nan nan nan nan nan nan nan nan nan nan nan nan nan nan nan nan nan nan nan nan nan nan nan nan nan nan nan nan nan nan nan 31 nan nan nan nan 34 31 32 32 35 36 37 42 nan nan 46 nan nan nan nan nan nan nan nan nan nan nan nan nan nan nan nan nan nan nan nan nan
nan nan nan nan nan nan nan nan nan nan nan nan nan nan nan nan nan nan nan nan nan nan nan nan nan nan nan nan nan nan nan nan nan nan nan nan nan nan nan nan nan nan nan nan nan nan nan nan nan nan 30 31 35 nan nan nan 37 35 32 32 35 39 46 nan nan nan nan nan nan nan nan nan nan nan nan nan nan nan nan nan nan nan nan nan nan
nan nan nan nan nan nan nan nan nan nan nan nan nan nan nan nan nan nan nan nan nan nan nan nan nan nan nan nan nan nan nan nan nan nan nan nan nan nan nan nan nan nan nan nan nan nan nan nan nan nan nan 31 33 32 31 nan 36 35 35 36 36 34 38 44 nan nan nan nan nan nan nan nan nan nan nan nan nan nan nan nan nan nan nan nan nan
nan nan nan nan nan nan nan nan nan nan nan nan nan nan nan nan nan nan nan nan nan nan nan nan nan nan nan nan nan nan nan nan nan nan nan nan nan nan nan nan nan nan nan nan nan nan nan nan nan nan nan 32 33 33 34 35 37 33 35 37 34 33 37 40 39 40 nan nan nan nan nan nan nan nan nan nan nan nan nan nan nan nan nan nan nan
nan nan nan nan nan nan nan nan nan nan nan nan nan nan nan nan nan nan nan nan nan nan nan nan nan nan nan nan nan nan nan nan nan nan nan nan nan nan nan nan nan nan nan nan nan nan nan nan nan nan nan nan nan nan 33 34 36 35 35 36 36 37 37 37 39 37 35 nan nan nan nan nan nan nan nan nan nan nan nan nan nan nan nan nan nan
nan nan nan nan nan nan nan nan nan nan nan nan nan nan nan nan nan nan nan nan nan nan nan nan nan nan nan nan nan nan nan nan nan nan nan nan nan nan nan nan nan nan nan nan nan nan nan nan nan nan nan nan nan nan nan nan 35 36 36 37 36 37 36 37 39 40 39 nan nan nan nan nan nan nan nan nan nan nan nan nan nan nan nan nan nan
Wind_Direction
286 288 288 292 292 294 294 296 297 297 302 302 299 298 298 297 295 293 291 288 286 283 280 277 272 269 265 264 263 263 262 263 265 267 269 270 271 271 271 272 270 268 266 261 257 254 250 248 247 245 245 245 242 238 230 224 221 218 213 209 211 217 217 214 214 215 208 201 199 nan 206 214 221 218 215 216 nan nan nan nan nan nan nan nan nan
294 289 288 291 296 296 296 297 298 299 301 301 299 299 297 295 293 292 291 290 287 284 281 276 270 267 265 263 261 260 260 261 263 265 268 270 271 269 269 268 265 264 263 258 254 251 249 249 250 249 249 247 244 237 228 223 222 219 215 213 211 217 220 219 218 218 nan nan nan nan nan 216 217 217 214 210 nan nan nan nan nan nan nan nan nan
289 288 289 292 295 294 295 297 298 299 299 299 300 299 297 294 293 293 291 289 285 283 281 278 275 269 264 262 262 259 256 256 258 261 263 266 269 269 266 266 263 260 258 253 247 246 243 245 249 250 250 247 244 238 229 224 223 219 217 214 209 216 219 217 221 223 nan 211 nan nan nan nan nan 214 212 nan nan nan nan nan nan nan nan nan nan
289 288 289 292 293 292 294 296 297 298 300 301 301 300 298 296 294 292 288 284 284 282 280 277 277 274 267 261 261 261 257 253 254 258 261 262 266 267 266 265 264 260 258 253 246 242 241 243 246 251 252 247 244 237 230 227 221 215 215 213 209 213 215 217 222 227 nan nan nan nan nan nan nan nan nan nan nan nan nan nan nan nan nan nan nan
289 291 290 287 288 291 294 297 296 298 299 301 301 300 299 300 296 291 286 284 283 282 281 278 277 278 274 264 260 261 257 253 254 256 258 259 260 264 263 263 262 261 261 254 246 240 238 242 247 249 254 248 245 237 230 227 220 212 210 209 202 207 215 219 225 230 nan nan nan nan nan nan nan nan nan nan nan nan nan nan nan nan nan nan nan
288 287 284 286 288 293 295 294 294 298 300 302 303 301 301 300 296 292 290 288 285 283 281 280 279 279 278 272 262 260 258 253 255 257 256 257 258 259 262 260 258 257 256 255 249 241 238 241 250 252 255 252 245 237 228 225 218 210 207 206 201 204 213 220 228 233 nan nan nan nan nan nan nan nan nan nan nan nan nan nan nan nan nan nan nan
282 280 283 285 286 290 292 294 298 299 298 300 301 300 300 298 295 292 292 290 287 285 283 280 279 279 278 274 267 260 258 257 256 255 253 254 257 257 260 262 259 251 250 252 249 241 235 238 246 256 258 256 249 239 226 222 214 208 205 205 200 201 209 218 220 216 206 194 nan nan nan nan nan nan nan nan nan nan nan nan nan nan nan nan nan
277 280 281 281 283 290 292 295 297 297 295 293 290 291 293 294 294 290 287 287 286 285 284 282 279 279 278 271 266 262 256 257 257 254 251 251 254 257 258 254 255 253 244 244 247 239 232 235 248 259 260 257 252 242 225 218 211 203 203 203 201 198 199 207 211 201 194 nan nan nan nan nan nan nan nan nan nan nan nan nan nan nan nan nan nan
278 277 276 276 279 287 286 289 291 291 288 288 292 291 290 292 295 290 286 284 284 283 283 285 282 280 278 272 266 264 259 256 256 254 250 249 250 253 257 254 248 242 234 232 235 229 228 235 245 256 260 259 255 246 229 214 209 201 202 202 201 198 195 194 194 192 188 nan nan nan nan nan nan nan 199 nan nan nan nan nan nan nan nan nan nan
273 270 271 271 274 281 279 280 283 285 283 282 284 290 292 294 296 294 289 284 284 280 280 283 284 282 280 274 264 263 262 257 252 252 249 246 242 245 246 248 246 239 231 226 230 227 222 232 245 254 258 259 255 246 233 216 208 201 200 202 202 200 194 189 185 183 181 nan nan nan nan nan nan nan 212 nan nan nan nan nan nan nan nan nan nan
270 265 264 265 268 273 272 272 275 277 278 278 279 282 290 294 297 295 291 288 288 284 281 280 282 279 279 277 269 262 263 261 250 246 249 245 242 239 239 240 242 237 231 230 230 229 225 234 246 256 256 256 254 245 234 219 209 204 202 201 203 199 nan 188 188 nan 212 nan nan nan 217 225 nan nan 224 nan nan nan nan nan nan nan nan nan nan
267 265 265 269 273 265 266 269 270 268 275 282 281 282 285 291 296 298 293 293 293 288 283 279 278 275 277 278 274 264 263 269 250 238 245 245 241 239 236 236 239 240 236 232 231 233 234 240 251 254 254 254 254 246 236 226 213 208 204 204 201 195 188 187 191 nan nan nan nan nan nan nan nan nan nan nan nan nan nan nan nan nan nan nan nan
267 267 267 266 264 265 265 268 271 271 269 272 282 284 286 288 294 298 296 294 291 293 287 277 275 271 271 275 274 268 264 265 242 232 241 241 240 241 238 237 238 241 238 235 234 234 235 239 248 252 255 255 252 242 233 230 218 211 209 209 202 nan 190 186 nan nan nan nan nan nan nan nan nan 237 236 nan nan nan nan nan nan nan nan nan nan
270 270 270 270 271 269 266 268 270 272 273 271 272 281 289 295 298 295 295 304 301 302 297 276 272 268 267 269 268 266 261 256 240 236 240 239 239 239 240 239 236 241 239 236 234 234 235 238 245 249 253 252 248 236 228 226 219 213 212 210 205 195 192 nan nan nan nan nan nan nan nan nan 225 246 243 nan nan nan nan nan nan nan nan nan nan
270 273 273 273 272 272 272 271 273 273 273 268 267 275 282 287 291 297 307 299 297 313 309 280 269 268 266 266 266 265 261 253 239 236 239 235 236 240 243 243 236 240 239 237 235 234 233 234 241 246 245 240 236 230 224 223 221 217 216 211 nan 198 193 nan nan nan nan nan nan nan nan nan 248 247 247 nan nan nan nan nan nan nan nan nan nan
270 274 276 274 276 276 273 274 274 274 272 270 269 269 277 285 289 294 300 297 297 309 308 283 269 267 268 269 266 262 257 252 239 232 232 233 235 240 245 245 242 239 238 237 235 233 232 229 236 242 240 236 232 227 223 219 217 219 216 nan 206 201 196 192 nan nan nan nan nan nan nan 238 255 250 249 nan nan nan nan nan nan nan nan nan nan
272 273 274 278 282 280 276 274 276 275 275 273 271 274 277 285 291 295 301 301 301 304 301 281 266 268 272 272 269 262 255 251 242 232 231 233 235 240 245 248 244 241 238 236 235 234 234 234 236 241 240 236 233 226 221 216 214 215 nan nan 207 201 197 197 nan nan nan nan nan nan nan 238 255 254 nan nan nan nan nan nan nan nan nan nan nan
270 274 277 279 280 280 279 280 279 277 277 276 275 275 278 281 286 291 295 300 300 297 288 272 265 269 275 274 270 262 254 250 242 234 232 234 235 239 245 251 249 244 241 237 236 236 236 235 235 239 239 236 233 228 221 215 210 211 nan 207 206 202 199 205 nan nan nan nan nan nan nan 247 261 257 nan nan nan nan nan nan nan nan nan nan nan
270 272 275 278 278 277 281 283 283 284 283 282 281 281 282 283 286 290 292 295 292 289 278 266 264 270 274 274 271 266 256 250 242 236 237 238 238 239 244 251 252 248 244 239 237 237 237 235 234 235 235 236 235 228 221 212 206 204 202 206 204 203 203 nan nan nan nan nan nan nan nan 250 250 nan nan nan nan nan nan nan nan nan nan nan nan
269 272 275 277 278 280 281 282 282 285 286 286 285 285 287 286 286 287 287 286 273 262 266 269 265 268 271 270 267 261 254 246 248 238 243 243 242 237 244 250 252 250 245 243 239 238 238 237 233 228 229 236 235 231 223 213 201 199 201 205 202 203 nan nan nan nan nan nan nan nan 234 245 250 nan nan nan nan nan nan nan nan nan nan nan nan
260 268 277 280 282 283 282 281 284 286 287 286 286 285 287 287 282 280 278 277 277 284 278 264 262 263 263 263 258 250 245 240 237 234 244 238 244 243 245 251 251 250 246 245 243 239 238 236 231 228 227 235 238 235 226 215 202 193 197 204 198 nan nan nan nan nan nan nan nan 229 246 246 252 254 256 nan nan nan nan nan nan nan nan nan nan
261 262 263 271 276 281 282 283 284 284 285 283 283 284 286 284 280 274 269 270 269 267 264 259 259 255 261 259 254 251 247 241 239 240 234 239 243 244 243 247 249 247 245 243 243 241 239 234 231 227 223 226 234 225 221 217 209 193 193 200 203 nan nan nan nan nan nan nan nan 237 253 252 255 257 258 nan nan nan nan nan nan nan nan nan nan
nan nan nan nan 273 278 279 278 281 283 281 282 282 284 285 287 285 277 270 272 275 266 260 261 260 262 264 265 263 257 249 245 239 239 232 238 242 243 238 242 244 244 240 239 238 237 239 232 229 225 220 224 225 224 220 216 212 199 197 206 nan nan nan nan nan nan nan nan nan 249 251 254 258 259 nan nan nan nan nan nan nan nan nan nan nan
nan nan nan nan nan 277 282 279 277 277 277 278 278 279 282 278 274 266 269 270 270 272 268 266 271 273 275 270 259 256 250 243 245 246 232 220 231 240 236 239 241 239 238 229 233 229 236 237 230 223 220 219 220 220 222 nan nan nan nan nan nan nan nan nan nan nan nan 236 nan 255 253 255 257 259 nan nan nan nan nan nan nan nan nan nan nan
nan nan nan nan nan nan 271 278 280 277 279 278 280 282 280 279 274 267 262 259 259 263 261 254 253 257 260 259 262 260 258 251 245 241 235 231 223 222 231 225 223 222 226 221 225 221 224 224 222 221 219 219 221 nan 221 nan nan 218 nan nan nan nan nan nan nan nan nan nan 240 258 257 256 258 262 nan nan nan nan nan nan nan nan nan nan nan
nan nan nan nan nan nan nan 268 270 273 277 278 279 282 283 282 277 273 268 263 265 265 264 264 264 260 260 263 264 265 260 255 249 242 238 232 231 225 218 223 220 221 221 223 224 222 219 nan nan nan nan nan nan nan nan nan nan nan nan nan nan nan nan nan nan nan nan nan 240 256 259 258 259 nan nan nan nan nan nan nan nan nan nan nan nan
nan nan nan nan nan nan nan nan nan 275 277 277 276 278 280 281 279 278 276 272 270 268 268 277 276 270 266 266 266 266 263 256 248 241 237 236 234 231 225 215 219 219 219 222 219 221 222 nan nan nan nan nan nan nan nan nan nan nan nan nan nan nan nan nan nan nan nan nan 243 263 261 265 268 nan nan nan nan nan nan nan nan nan nan nan nan
nan nan nan nan nan nan nan nan nan 270 279 279 282 284 284 281 281 279 279 279 276 273 274 282 282 281 275 266 266 262 261 258 254 249 241 236 229 225 226 213 218 218 215 219 220 218 223 218 nan nan nan nan nan nan nan nan 229 nan nan nan nan nan nan nan nan nan nan nan nan 254 261 265 269 272 nan nan nan nan nan nan nan nan nan nan nan
nan nan nan nan nan nan nan nan nan nan 276 279 280 279 278 280 281 282 283 283 281 280 278 282 279 282 282 279 273 266 262 260 255 253 246 241 238 234 230 222 215 216 214 215 217 220 nan nan nan nan nan nan nan nan nan 235 231 nan nan nan nan nan nan nan nan nan nan nan nan 247 263 265 268 272 nan nan nan nan nan nan nan nan nan nan nan
nan nan nan nan nan nan nan nan nan nan 271 278 282 282 283 282 282 283 285 284 283 280 278 278 280 280 277 274 271 270 266 257 254 253 246 237 235 230 229 227 224 225 221 210 210 217 nan nan nan nan nan nan nan nan nan 238 238 nan nan nan nan nan nan nan nan nan nan nan nan 247 263 264 268 273 nan nan nan nan nan nan nan nan nan nan nan
nan nan nan nan nan nan nan nan nan nan nan nan nan nan nan nan 285 287 286 287 286 282 277 278 279 279 278 274 270 272 267 260 260 254 242 231 229 230 227 230 229 225 225 220 214 212 nan nan nan nan nan nan 218 225 nan nan nan nan nan nan 231 nan nan nan nan nan nan nan nan nan 253 268 267 nan 268 nan nan nan nan nan nan nan nan nan nan
nan nan nan nan nan nan nan nan nan nan nan nan nan nan nan nan nan nan nan 285 282 282 283 283 281 279 276 277 276 270 266 265 269 259 236 228 228 231 231 231 231 225 222 219 216 214 213 209 207 217 nan 224 223 nan nan nan nan nan nan nan nan nan nan nan nan nan nan nan nan nan nan nan 265 nan nan nan nan nan nan nan nan nan nan nan nan
nan nan nan nan nan nan nan nan nan nan nan nan nan nan nan nan nan nan nan nan 281 283 286 285 284 283 277 274 276 277 281 284 277 250 222 229 232 233 232 234 236 223 217 213 215 215 215 209 206 209 212 217 225 nan nan nan nan nan nan nan nan nan nan nan nan nan nan nan nan nan nan nan nan nan nan 259 nan 258 273 284 nan nan nan nan nan
nan nan nan nan nan nan nan nan nan nan nan nan nan nan nan nan nan nan nan nan nan 286 283 280 278 278 277 278 276 280 284 281 278 264 228 223 228 231 227 230 240 236 222 220 211 213 213 210 207 207 207 211 224 nan nan nan nan nan nan nan nan nan nan nan nan nan nan nan nan nan nan nan nan nan nan 261 261 nan nan 271 278 nan nan nan nan
nan nan nan nan nan nan nan nan nan nan nan nan nan nan nan nan nan nan nan nan nan nan nan nan 278 278 277 272 271 268 275 279 278 266 245 228 228 234 237 233 241 238 234 231 223 218 215 212 212 207 nan 214 nan nan nan nan nan nan nan nan nan nan nan 241 241 nan 246 nan nan nan nan nan nan nan nan nan nan nan nan 267 266 281 nan nan nan
nan nan nan nan nan nan nan nan nan nan nan nan nan nan nan nan nan nan nan nan nan nan nan nan nan nan 273 272 268 259 260 269 275 268 257 248 240 247 243 244 244 242 247 243 232 226 220 212 212 211 205 208 nan nan nan nan nan nan nan nan nan 241 246 240 240 237 236 249 254 nan 258 nan nan nan nan nan nan nan nan nan 269 274 nan nan nan
nan nan nan nan nan nan nan nan nan nan nan nan nan nan nan nan nan nan nan nan nan nan nan nan nan nan nan nan 265 nan nan 252 260 265 262 256 248 240 243 245 249 245 245 249 242 237 233 215 209 210 209 204 nan nan nan nan nan nan nan nan nan nan 247 248 242 nan 241 nan nan 256 258 262 262 nan nan nan nan nan nan nan nan nan 276 nan nan
nan nan nan nan nan nan nan nan nan nan nan nan nan nan nan nan nan nan nan nan nan nan nan nan nan nan nan nan nan nan nan nan 251 254 259 258 260 266 242 246 250 248 247 245 245 248 251 241 220 214 210 208 208 nan 217 225 nan nan nan nan nan nan nan nan nan nan 243 242 nan 253 259 261 nan nan nan nan nan nan nan nan nan nan nan nan nan
nan nan nan nan nan nan nan nan nan nan nan nan nan nan nan nan nan nan nan nan nan nan nan nan nan nan nan nan nan nan nan nan nan 248 250 254 260 261 260 242 243 255 256 252 251 253 258 255 243 225 213 211 214 221 217 220 226 228 232 nan nan nan nan nan nan nan nan nan 247 247 nan 259 261 nan nan nan nan nan nan nan nan nan nan nan nan
nan nan nan nan nan nan nan nan nan nan nan nan nan nan nan nan nan nan nan nan nan nan nan nan nan nan nan nan nan nan nan nan nan nan nan nan nan 258 260 259 249 246 254 265 258 254 258 255 250 243 225 216 216 223 224 223 222 nan 229 229 nan nan nan nan nan nan nan nan nan nan nan nan nan nan nan nan nan nan nan nan nan nan nan nan nan
nan nan nan nan nan nan nan nan nan nan nan nan nan nan nan nan nan nan nan nan nan nan nan nan nan nan nan nan nan nan nan nan nan nan nan 249 nan nan nan nan 255 253 251 250 252 251 250 253 247 250 248 236 226 229 229 230 226 223 226 227 nan nan nan nan nan nan nan nan nan nan nan nan nan nan nan nan nan nan nan nan nan nan nan nan nan
nan nan nan nan nan nan nan nan nan nan nan nan nan nan nan nan nan nan nan nan nan nan nan nan nan nan nan nan nan nan nan nan nan nan nan nan nan nan nan nan nan nan nan nan 254 252 250 246 247 248 249 247 240 238 235 233 230 233 231 224 nan nan nan nan nan nan nan nan nan nan nan nan nan nan nan nan nan nan nan nan nan nan nan nan nan
nan nan nan nan nan nan nan nan nan nan nan nan nan nan nan nan nan nan nan nan nan nan nan nan nan nan nan nan nan nan nan nan nan nan nan nan nan nan nan nan nan nan nan nan nan nan 253 252 252 252 248 244 244 244 245 245 238 236 237 234 nan nan nan nan nan nan nan nan nan nan nan nan nan nan nan nan nan nan nan nan nan nan nan nan nan
nan nan nan nan nan nan nan nan nan nan nan nan nan nan nan nan nan nan nan nan nan nan nan nan nan nan nan nan nan nan nan nan nan nan nan nan nan nan nan nan nan nan nan nan nan nan nan 255 253 252 253 254 252 249 253 251 246 242 nan nan 236 nan nan nan nan nan nan nan nan nan nan nan nan nan nan nan nan nan nan nan nan nan nan nan nan
nan nan nan nan nan nan nan nan nan nan nan nan nan nan nan nan nan nan nan nan nan nan nan nan nan nan nan nan nan nan nan nan nan nan nan nan nan nan nan nan nan nan nan nan nan nan nan nan nan 256 257 256 253 253 252 256 254 249 247 242 nan nan nan nan nan nan nan nan nan nan nan nan nan nan nan nan nan nan nan nan nan nan nan nan nan
nan nan nan nan nan nan nan nan nan nan nan nan nan nan nan nan nan nan nan nan nan nan nan nan nan nan nan nan nan nan nan nan nan nan nan nan nan nan nan nan nan nan nan nan nan nan nan nan 255 nan nan nan nan 253 254 255 259 256 250 247 248 nan nan 243 nan nan nan nan nan nan nan nan nan nan nan nan nan nan nan nan nan nan nan nan nan
nan nan nan nan nan nan nan nan nan nan nan nan nan nan nan nan nan nan nan nan nan nan nan nan nan nan nan nan nan nan nan nan nan nan nan nan nan nan nan nan nan nan nan nan nan nan nan nan nan nan 258 256 255 nan nan nan 251 251 256 252 246 245 247 nan nan nan nan nan nan nan nan nan nan nan nan nan nan nan nan nan nan nan nan nan nan
nan nan nan nan nan nan nan nan nan nan nan nan nan nan nan nan nan nan nan nan nan nan nan nan nan nan nan nan nan nan nan nan nan nan nan nan nan nan nan nan nan nan nan nan nan nan nan nan nan nan nan 258 259 256 250 nan 254 252 255 254 251 248 248 248 nan nan nan nan nan nan nan nan nan nan nan nan nan nan nan nan nan nan nan nan nan
nan nan nan nan nan nan nan nan nan nan nan nan nan nan nan nan nan nan nan nan nan nan nan nan nan nan nan nan nan nan nan nan nan nan nan nan nan nan nan nan nan nan nan nan nan nan nan nan nan nan nan 256 258 254 251 251 254 252 250 253 257 256 251 250 251 257 nan nan nan nan nan nan nan nan nan nan nan nan nan nan nan nan nan nan nan
nan nan nan nan nan nan nan nan nan nan nan nan nan nan nan nan nan nan nan nan nan nan nan nan nan nan nan nan nan nan nan nan nan nan nan nan nan nan nan nan nan nan nan nan nan nan nan nan nan nan nan nan nan nan 259 256 255 253 253 252 252 251 254 252 253 257 260 nan nan nan nan nan nan nan nan nan nan nan nan nan nan nan nan nan nan
nan nan nan nan nan nan nan nan nan nan nan nan nan nan nan nan nan nan nan nan nan nan nan nan nan nan nan nan nan nan nan nan nan nan nan nan nan nan nan nan nan nan nan nan nan nan nan nan nan nan nan nan nan nan nan nan 259 257 255 255 254 254 253 254 253 256 259 nan nan nan nan nan nan nan nan nan nan nan nan nan nan nan nan nan nan